Regional Weather Roundup
Issued by NWS

Home | Current Version | Previous Version | Graphics & Text | Print | Product List | Glossary On
Versions: 1 2 3 4 5 6 7 8 9 10 11 12 13 14 15 16 17 18 19 20 21 22 23 24 25 26 27 28 29 30 31 32 33 34 35 36 37 38 39 40 41 42 43 44 45 46 47 48 49 50
071
ASUS44 KJAN 202203
RWRMS

MISSISSIPPI HOURLY WEATHER ROUNDUP
NATIONAL WEATHER SERVICE JACKSON MS
400 PM CST SAT DEC 20 2014

NOTE: "FAIR: INDICATES FEW OR NO CLOUDS BELOW 12,000 FEET WITH NO
SIGNIFICANT WEATHER AND/OR OBSTRUCTIONS TO VISIBILITY.

MSZ001>002-007>008-010>013-018>021-025>028-034>036-202300-
NORTHWEST MISSISSIPPI

CITY           SKY/WX    TMP DP  RH WIND       PRES   REMARKS
CLARKSDALE     FAIR      50  39  66 N6        30.22R
CLEVELAND      FAIR      52  40  63 N5        30.20R
GREENWOOD      CLEAR     56  36  47 NE7       30.18S
GREENVILLE     CLEAR     53  40  61 N9        30.19S
GRENADA        FAIR      54  36  50 CALM      30.19S
OLIVE BRANCH   MOCLDY    46  36  66 N8        30.21S
OXFORD         FAIR      50  32  50 NE6       30.20F
TUNICA         CLEAR     46  36  66 N10       30.22S
$$

MSZ003>006-009-014>017-022>024-029>033-037>039-202300-
NORTHEAST MISSISSIPPI

CITY           SKY/WX    TMP DP  RH WIND       PRES   REMARKS
COLUMBUS AFB   CLEAR     55  35  47 N7        30.18S
CORINTH        FAIR      52  32  46 NE7       30.20S
GOLDN TRIANGLE CLEAR     54  36  50 NE8       30.18R
STARKVILLE     FAIR      52  37  58 NE7       30.18S
TUPELO         CLEAR     53  34  48 NE9       30.19S
$$

MSZ040-058-202300-
CENTRAL MISSISSIPPI

CITY           SKY/WX    TMP DP  RH WIND       PRES   REMARKS
JACKSON INTL   PTCLDY    56  41  57 N7        30.16R
JACKSON HAWKNS CLEAR     56  41  57 NE6       30.16R
MERIDIAN KEY   CLEAR     54  41  61 NE7       30.16S
MERIDIAN NAS   CLEAR     54  40  59 N6        30.17R
RAYMOND        FAIR      57  54  88 N5        30.16S
VICKSBURG      SUNNY     58  40  51 NE7       30.16S
$$

MSZ059>079-202300-
SOUTH MISSISSIPPI

CITY           SKY/WX    TMP DP  RH WIND       PRES   REMARKS
HATTIESBURG    CLOUDY    53  46  77 N7        30.15R
MCCOMB         CLOUDY    50  43  77 N8        30.14R
NATCHEZ        SUNNY     57  43  58 N9        30.14S
PINE BELT      CLOUDY    52  43  71 NE7       30.15R
$$

MSZ080>082-202300-
COASTAL MISSISSIPPI

CITY           SKY/WX    TMP DP  RH WIND       PRES   REMARKS
BAY ST LOUIS   CLOUDY    52  45  76 N9        30.12R
BILOXI         CLOUDY    52  49  89 NE13      30.11R
PASCAGOULA     CLOUDY    52  48  86 N13       30.10R
GULFPORT       CLOUDY    51  47  86 N14       30.11R
$$



USA.gov is the U.S. government's official web portal to all federal, state and local government web resources and services.